Total_Precipitation_Accumulation
1.94 2.27 2.41 2.35 2.32 2.39 2.23 2.18 2.29 2.30 2.28 2.37 2.39 2.39 2.36 2.49 2.70 2.94 2.87 3.05 3.17 3.20 3.16 3.08 2.99 3.05 3.24 3.16 3.27 3.43 3.69 3.97 3.63 3.15 2.98 2.94 3.03 2.93 2.75 2.37 2.08 1.95 1.79
2.21 2.56 2.72 2.52 2.31 2.16 1.98 1.96 2.11 2.28 2.33 2.35 2.36 2.36 2.28 2.39 2.67 2.82 2.90 3.18 3.32 3.19 3.11 3.10 2.95 3.09 3.19 3.17 3.24 3.21 3.31 3.67 3.55 3.26 3.15 3.20 3.13 2.99 2.89 2.68 2.27 2.03 2.03
2.04 2.42 2.47 2.24 2.02 1.98 1.96 2.00 2.13 2.32 2.34 2.32 2.35 2.37 2.45 2.62 2.81 2.92 3.02 3.19 3.16 3.03 3.07 2.99 2.85 2.98 2.88 2.95 2.99 2.99 2.98 3.12 3.33 3.21 3.06 3.16 3.07 2.95 2.94 2.79 2.66 2.73 2.44
1.68 2.07 2.05 1.86 1.80 1.84 1.88 1.93 1.96 2.07 2.14 2.19 2.35 2.51 2.64 2.80 2.91 2.95 3.01 2.99 2.96 2.81 2.72 2.65 2.67 2.80 2.89 2.90 2.81 2.78 2.86 3.02 3.13 3.16 3.09 3.18 3.19 3.22 3.15 3.01 3.01 2.94 2.72
1.61 1.94 1.93 1.80 1.79 1.76 1.75 1.88 1.95 2.01 2.04 2.28 2.44 2.51 2.56 2.58 2.63 2.84 2.82 2.72 2.71 2.56 2.43 2.27 2.30 2.65 2.81 2.79 2.57 2.70 2.80 2.86 2.94 3.07 3.09 3.16 3.26 3.50 3.31 3.06 2.96 3.05 2.87
1.54 1.86 1.86 1.75 1.68 1.62 1.69 1.83 1.95 2.04 2.22 2.41 2.40 2.40 2.35 1.97 2.09 2.26 2.29 2.28 2.33 2.30 2.17 2.13 2.12 2.20 2.25 2.30 2.32 2.36 2.44 2.52 2.74 3.06 3.13 3.08 3.05 3.16 3.31 3.27 3.22 3.13 2.99
1.60 1.87 1.93 1.84 1.77 1.74 1.67 1.84 2.03 2.25 2.45 2.54 2.48 2.43 2.26 2.12 2.01 1.90 1.89 1.95 2.09 2.11 2.14 2.22 1.91 1.73 1.93 1.95 2.12 2.12 2.05 2.16 2.32 2.62 2.81 2.80 2.92 2.94 3.27 3.29 3.35 3.35 3.26
1.62 1.87 2.00 1.95 1.93 2.00 2.01 2.07 2.27 2.52 2.70 2.71 2.67 2.56 2.42 2.27 2.17 1.98 1.98 1.90 1.98 2.01 2.03 2.08 2.02 1.90 1.88 2.02 2.13 2.07 1.91 1.88 1.89 1.87 2.07 2.37 2.66 2.97 3.07 3.14 3.27 3.34 3.31
1.55 1.82 2.03 2.10 2.15 2.13 2.17 2.44 2.65 2.82 2.85 2.81 2.88 2.79 2.64 2.58 2.39 2.03 1.87 1.78 1.94 1.97 1.97 1.92 1.88 1.81 1.94 1.86 1.80 1.80 1.82 1.80 1.68 1.68 1.75 1.98 2.24 2.36 2.57 2.82 3.04 3.04 2.92
1.90 2.05 2.34 2.54 2.68 2.71 2.78 2.85 2.92 3.02 2.97 2.99 2.90 2.84 2.72 2.67 2.58 2.05 1.78 1.69 1.87 1.91 1.96 1.91 1.80 1.65 1.69 1.61 1.54 1.67 1.68 1.70 1.79 1.76 1.63 1.63 1.70 1.90 2.05 2.11 2.43 2.66 2.52
2.33 2.41 2.67 3.02 3.21 3.16 3.19 3.08 3.00 2.99 3.01 3.01 2.89 2.78 2.71 2.61 2.51 2.06 1.88 1.84 1.96 2.05 1.99 1.90 1.83 1.72 1.53 1.50 1.46 1.48 1.56 1.63 1.73 1.80 1.75 1.66 1.76 1.90 1.85 1.82 2.03 2.31 2.39
2.64 2.94 3.18 3.36 3.18 3.08 3.27 3.15 3.16 3.21 3.19 3.08 2.98 2.87 2.91 2.80 2.53 2.19 1.98 1.97 2.04 2.10 2.13 2.08 1.99 1.81 1.58 1.52 1.42 1.38 1.39 1.32 1.31 1.50 1.57 1.53 1.58 1.69 1.77 1.78 1.87 1.97 2.11
2.82 3.04 3.12 3.18 3.29 3.42 3.50 3.37 3.31 3.29 3.22 3.03 2.92 2.74 2.68 2.76 2.76 2.35 2.06 2.06 2.08 1.99 2.12 2.22 1.99 1.76 1.59 1.42 1.41 1.44 1.33 1.21 1.28 1.36 1.36 1.37 1.39 1.51 1.76 1.95 2.05 2.13 2.11
2.68 2.72 2.84 3.02 3.16 3.28 3.51 3.52 3.38 3.19 3.09 3.00 2.95 2.82 2.74 2.78 2.72 2.34 2.02 1.99 2.03 1.95 1.98 2.08 1.96 1.79 1.64 1.50 1.45 1.42 1.32 1.35 1.46 1.43 1.43 1.49 1.54 1.63 1.75 1.85 2.00 2.15 2.13
2.77 2.69 2.61 2.65 2.78 2.93 3.06 3.15 3.08 3.05 2.93 2.80 2.62 2.56 2.53 2.54 2.55 2.30 2.03 1.98 2.10 2.19 2.15 2.12 2.07 1.93 1.78 1.65 1.60 1.62 1.66 1.66 1.62 1.62 1.66 1.66 1.64 1.66 1.74 1.85 1.97 2.08 2.04
2.72 2.61 2.55 2.50 2.57 2.63 2.64 2.62 2.49 2.39 2.27 2.10 2.02 1.96 1.92 1.98 2.16 2.02 1.87 1.91 2.12 2.27 2.15 2.04 2.12 2.06 1.92 1.81 1.77 1.77 1.77 1.73 1.71 1.76 1.74 1.72 1.70 1.71 1.76 1.84 1.90 1.91 1.92
2.60 2.47 2.33 2.23 2.24 2.24 2.29 2.45 2.52 2.30 2.10 1.88 1.77 1.65 1.60 1.71 1.82 1.83 1.80 1.84 1.95 1.96 1.79 1.81 1.93 1.96 1.86 1.80 1.77 1.75 1.69 1.74 1.82 1.79 1.74 1.77 1.79 1.79 1.87 1.93 1.95 1.98 1.92
2.45 2.46 2.35 2.22 2.20 2.19 2.27 2.37 2.50 2.49 2.22 1.85 1.76 1.68 1.49 1.43 1.45 1.51 1.59 1.62 1.62 1.61 1.55 1.63 1.69 1.76 1.78 1.79 1.81 1.82 1.76 1.77 1.79 1.79 1.78 1.81 1.85 1.84 1.89 1.91 1.88 1.91 2.00
2.27 2.23 2.20 2.25 2.22 2.20 2.33 2.38 2.37 2.41 2.28 2.07 1.82 1.62 1.51 1.36 1.35 1.44 1.38 1.31 1.40 1.44 1.43 1.48 1.52 1.54 1.59 1.65 1.66 1.72 1.74 1.73 1.74 1.79 1.77 1.79 1.84 1.85 1.89 1.89 1.87 1.93 1.95
2.21 2.13 2.02 2.00 1.99 1.96 2.02 2.12 2.16 2.28 2.26 2.17 2.00 1.72 1.49 1.36 1.33 1.38 1.33 1.36 1.47 1.48 1.44 1.46 1.43 1.44 1.49 1.56 1.65 1.73 1.76 1.79 1.84 1.84 1.83 1.84 1.88 1.91 1.91 1.94 1.96 1.97 1.96
2.15 1.98 1.74 1.58 1.63 1.74 1.89 2.01 2.04 2.10 2.20 2.15 1.93 1.69 1.47 1.26 1.31 1.42 1.46 1.47 1.47 1.46 1.41 1.39 1.38 1.38 1.42 1.52 1.61 1.68 1.76 1.83 1.84 1.86 1.93 1.92 1.85 1.83 1.83 1.89 1.91 1.95 2.00
2.01 1.87 1.65 1.50 1.54 1.64 1.76 1.95 2.02 1.98 1.96 1.95 1.83 1.63 1.50 1.29 1.32 1.36 1.37 1.38 1.39 1.43 1.40 1.38 1.33 1.34 1.37 1.46 1.58 1.66 1.73 1.76 1.79 1.82 1.83 1.85 1.86 1.84 1.83 1.90 1.92 1.92 1.95
1.90 1.84 1.71 1.62 1.68 1.74 1.77 1.83 1.84 1.82 1.77 1.71 1.65 1.55 1.48 1.44 1.41 1.43 1.42 1.39 1.40 1.39 1.40 1.40 1.34 1.33 1.39 1.47 1.55 1.60 1.65 1.62 1.62 1.65 1.74 1.82 1.85 1.85 1.90 1.95 1.91 1.88 1.88
1.68 1.72 1.67 1.61 1.64 1.70 1.68 1.71 1.66 1.64 1.61 1.56 1.50 1.48 1.48 1.51 1.49 1.44 1.43 1.40 1.38 1.30 1.25 1.27 1.29 1.31 1.34 1.35 1.32 1.32 1.34 1.38 1.39 1.43 1.52 1.64 1.72 1.81 1.91 1.94 1.89 1.85 1.95
1.56 1.64 1.66 1.66 1.66 1.67 1.70 1.73 1.65 1.58 1.56 1.54 1.53 1.51 1.50 1.48 1.44 1.45 1.44 1.36 1.29 1.29 1.28 1.30 1.31 1.24 1.17 1.18 1.17 1.15 1.27 1.29 1.24 1.28 1.38 1.56 1.65 1.78 1.93 1.97 1.94 1.96 2.08
1.46 1.50 1.54 1.56 1.57 1.58 1.59 1.64 1.64 1.56 1.50 1.41 1.40 1.40 1.33 1.31 1.33 1.31 1.27 1.24 1.26 1.27 1.24 1.22 1.23 1.21 1.18 1.15 1.17 1.25 1.28 1.24 1.25 1.35 1.32 1.34 1.48 1.60 1.72 1.79 1.76 1.85 1.98